Starlink 4725

operational
NORAD ID: 53700 Int'l Des: 2022-107 Owner: SPXS Country: US Constellation: starlink
LEOCIRCULAR

Über Starlink 4725

Beschreibung wird geladen...

Live-Position

3D-Globus wird geladen...

Nächste Überflüge

Höhenverlauf

Altitude vs Time

uPlot chart will show altitude changes over time

Zweizeiliger Elementsatz

1 53700U 22107A 26035.26846820 -.00001271 00000-0 -61750-4 0 9995
2 53700 53.2196 33.7819 0001678 104.5564 255.5614 15.08840387189810
Epoch: 4. Feb. 2026 • Age: 11 hours

Aktueller Status

Höhe 541.4 km
Geschwindigkeit 7.59 km/s
Subsatellitenpunkt -2.61°S, 8.49°W
Startdatum 5. Sept. 2022
Alter 3.4 years
Typ internet

Technische Details

Klassifizierung Payload
Masse 305.00 kg
Trockenmasse 290.00 kg
Gesamtmasse 305.00 kg
Länge 0.20 m
Durchmesser 2.80 m
Spannweite 9.00 m
Form Box + pan
Hersteller SPXS
Bus-Typ Starlink
Phasenstatus In Orbit
Besitzer/Staat SPXS/US

Große Konstellationen

Loading constellations...